Valley City, ND

2:27 AM CST on December 09, 2019 (GMT -0600)
Valley City

Weather History for KBAC - October, 2019

Change the Weather History Date:

Sunday, October 27, 2019

  Actual Average (WUND) Record (WUND)
Temperature  
Mean Temperature 30 °F -  
Max Temperature 35 °F - - (-1)
Min Temperature 26 °F - - (-1)
Degree Days  
Heating Degree Days 34    
Moisture  
Dew Point 22 °F    
Average Humidity 70    
Maximum Humidity 93    
Minimum Humidity 51    
Precipitation  
Precipitation 0.00 in - - ()
Sea Level Pressure  
Sea Level Pressure 30.03 in    
Wind  
Wind Speed 18 mph (NW)    
Max Wind Speed 25 mph    
Max Gust Speed 32 mph    
Visibility 10 miles    
Events Snow    
Averages and records for this station are not official NWS values.
T = Trace of Precipitation, MM = Missing Value Source: NWS Daily Summary

Daily Weather History Graph

Daily Weather History Graph

Search for Another Location

Airport or City:

Astronomy

Oct. 27, 2019 Rise Set
Actual Time 8:07 AM CDT 6:24 PM CDT
Civil Twilight 7:35 AM CDT 6:55 PM CDT
Nautical Twilight 6:59 AM CDT 7:31 PM CDT
Astronomical Twilight 6:24 AM CDT 8:06 PM CDT
Moon 7:10 AM CDT (10/27) 6:38 PM CDT (10/27)
Length of Visible Light 11h 19m
Length of Day
10h 17m
Waning Crescent, 0% of the Moon is Illuminated
Oct 27
Waning Crescent
Oct 27
New
Nov 4
First Quarter
Nov 12
Full
Nov 19
Last Quarter

Hourly Weather History & Observations

Time (CDT) Temp. Windchill Dew Point Humidity Pressure Visibility Wind Dir Wind Speed Gust Speed Precip Events Conditions
12:15 AM 35.6 °F 25.5 °F 33.8 °F 93% 29.85 in 10.0 mi NNW 17.3 mph 24.2 mph N/A Snow Light Snow
12:35 AM 35.6 °F 24.2 °F 33.8 °F 93% 29.86 in 10.0 mi NNW 21.9 mph - N/A Snow Light Snow
12:55 AM 35.6 °F 25.2 °F 32.0 °F 87% 29.88 in 10.0 mi NW 18.4 mph 26.5 mph N/A Snow Light Snow
1:15 AM 35.6 °F 25.2 °F 32.0 °F 87% 29.87 in 10.0 mi NNW 18.4 mph - N/A Snow Light Snow
1:35 AM 35.6 °F 25.2 °F 32.0 °F 87% 29.87 in 10.0 mi NW 18.4 mph 24.2 mph N/A   Overcast
1:55 AM 35.6 °F 26.2 °F 32.0 °F 87% 29.90 in 10.0 mi NW 15.0 mph 20.7 mph N/A   Overcast
2:15 AM 35.6 °F 25.2 °F 32.0 °F 87% 29.93 in 10.0 mi NW 18.4 mph - N/A   Overcast
2:35 AM 35.6 °F 26.6 °F 32.0 °F 87% 29.94 in 10.0 mi NW 13.8 mph 19.6 mph N/A   Overcast
2:55 AM 35.6 °F 25.9 °F 32.0 °F 87% 29.95 in 10.0 mi NW 16.1 mph 21.9 mph N/A Snow Light Snow
3:15 AM 35.6 °F 25.9 °F 32.0 °F 87% 29.95 in 10.0 mi NW 16.1 mph 24.2 mph N/A Snow Light Snow
3:35 AM 35.6 °F 25.5 °F 32.0 °F 87% 29.94 in 10.0 mi NW 17.3 mph - N/A   Overcast
3:55 AM 35.6 °F 25.9 °F 30.2 °F 81% 29.94 in 10.0 mi NW 16.1 mph - N/A Snow Light Snow
4:15 AM 35.6 °F 24.8 °F 30.2 °F 81% 29.95 in 10.0 mi NW 19.6 mph - N/A Snow Light Snow
4:35 AM 33.8 °F 23.5 °F 30.2 °F 87% 29.96 in 10.0 mi NW 16.1 mph 25.3 mph N/A Snow Light Snow
4:55 AM 33.8 °F 24.3 °F 30.2 °F 87% 29.96 in 10.0 mi NW 13.8 mph 25.3 mph N/A Snow Light Snow
5:15 AM 33.8 °F 23.5 °F 28.4 °F 81% 29.97 in 10.0 mi NW 16.1 mph - N/A   Overcast
5:35 AM 33.8 °F 22.5 °F 28.4 °F 81% 29.97 in 10.0 mi NW 19.6 mph - N/A   Overcast
5:55 AM 33.8 °F 24.8 °F 28.4 °F 81% 29.97 in 10.0 mi NW 12.7 mph 23.0 mph N/A   Overcast
6:15 AM 33.8 °F 23.5 °F 28.4 °F 81% 29.98 in 10.0 mi NW 16.1 mph 21.9 mph N/A   Overcast
6:35 AM 33.8 °F 23.2 °F 28.4 °F 81% 29.98 in 10.0 mi NW 17.3 mph - N/A   Overcast
6:55 AM 32.0 °F 21.2 °F 26.6 °F 80% 29.98 in 10.0 mi NW 16.1 mph 23.0 mph N/A Snow Light Snow
7:15 AM 32.0 °F 20.1 °F 26.6 °F 80% 29.99 in 10.0 mi NW 19.6 mph 27.6 mph N/A Snow Light Snow
7:35 AM 32.0 °F 20.1 °F 26.6 °F 80% 30.00 in 10.0 mi NW 19.6 mph 28.8 mph N/A Snow Light Snow
7:55 AM 32.0 °F 20.1 °F 24.8 °F 75% 30.01 in 10.0 mi NW 19.6 mph 32.2 mph N/A Snow Light Snow
8:15 AM 32.0 °F 19.5 °F 24.8 °F 75% 30.02 in 10.0 mi NNW 21.9 mph - N/A Snow Light Snow
8:35 AM 32.0 °F 19.5 °F 23.0 °F 69% 30.02 in 10.0 mi NNW 21.9 mph 31.1 mph N/A Snow Light Snow
8:55 AM 32.0 °F 21.2 °F 24.8 °F 75% 30.03 in 10.0 mi NNW 16.1 mph 24.2 mph N/A   Overcast
9:15 AM 30.2 °F 18.9 °F 24.8 °F 80% 30.04 in 10.0 mi NW 16.1 mph 23.0 mph N/A   Overcast
9:35 AM 30.2 °F 18.5 °F 24.8 °F 80% 30.05 in 10.0 mi WNW 17.3 mph 23.0 mph N/A   Overcast
9:55 AM 30.2 °F 17.4 °F 24.8 °F 80% 30.06 in 10.0 mi NW 20.7 mph 27.6 mph N/A Snow Light Snow
10:15 AM 30.2 °F 17.8 °F 24.8 °F 80% 30.06 in 10.0 mi WNW 19.6 mph 26.5 mph N/A Snow Light Snow
10:35 AM 32.0 °F 19.2 °F 23.0 °F 69% 30.06 in 10.0 mi WNW 23.0 mph - N/A Snow Light Snow
11:15 AM 32.0 °F 20.1 °F 21.2 °F 64% 30.07 in 10.0 mi NW 19.6 mph - N/A Snow Light Snow
11:35 AM 32.0 °F 19.8 °F 21.2 °F 64% 30.06 in 10.0 mi WNW 20.7 mph 27.6 mph N/A Snow Light Snow
11:55 AM 32.0 °F 19.8 °F 19.4 °F 60% 30.07 in 10.0 mi WNW 20.7 mph - N/A Snow Light Snow
12:15 PM 32.0 °F 19.8 °F 19.4 °F 60% 30.07 in 10.0 mi West 20.7 mph 29.9 mph N/A Snow Light Snow
12:35 PM 32.0 °F 20.1 °F 19.4 °F 60% 30.07 in 10.0 mi WNW 19.6 mph 25.3 mph N/A Snow Light Snow
12:55 PM 32.0 °F 19.8 °F 19.4 °F 60% 30.07 in 10.0 mi WNW 20.7 mph - N/A Snow Light Snow
1:15 PM 32.0 °F 20.5 °F 19.4 °F 60% 30.07 in 10.0 mi NW 18.4 mph 25.3 mph N/A Snow Light Snow
1:35 PM 30.2 °F 17.1 °F 19.4 °F 64% 30.07 in 10.0 mi WNW 21.9 mph - N/A Snow Light Snow
1:55 PM 30.2 °F 17.8 °F 19.4 °F 64% 30.07 in 10.0 mi WNW 19.6 mph 25.3 mph N/A Snow Light Snow
2:15 PM 30.2 °F 16.2 °F 17.6 °F 60% 30.07 in 10.0 mi NW 25.3 mph - N/A Snow Light Snow
2:35 PM 30.2 °F 17.8 °F 17.6 °F 60% 30.06 in 10.0 mi WNW 19.6 mph 26.5 mph N/A Snow Light Snow
2:55 PM 30.2 °F 17.1 °F 17.6 °F 60% 30.05 in 10.0 mi West 21.9 mph - N/A Snow Light Snow
3:15 PM 32.0 °F 18.9 °F 15.8 °F 51% 30.06 in 10.0 mi WNW 24.2 mph - N/A Snow Light Snow
3:35 PM 30.2 °F 17.1 °F 15.8 °F 55% 30.06 in 10.0 mi WNW 21.9 mph 27.6 mph N/A Snow Light Snow
3:55 PM 30.2 °F 17.4 °F 15.8 °F 55% 30.07 in 10.0 mi WNW 20.7 mph 29.9 mph N/A Snow Light Snow
4:15 PM 30.2 °F 16.8 °F 15.8 °F 55% 30.07 in 10.0 mi WNW 23.0 mph - N/A Snow Light Snow
4:35 PM 30.2 °F 18.1 °F 15.8 °F 55% 30.07 in 10.0 mi WNW 18.4 mph 25.3 mph N/A Snow Light Snow
4:55 PM 30.2 °F 17.4 °F 15.8 °F 55% 30.07 in 10.0 mi WNW 20.7 mph 31.1 mph N/A Snow Light Snow
5:15 PM 28.4 °F 14.4 °F 15.8 °F 59% 30.07 in 10.0 mi WNW 23.0 mph - N/A Snow Light Snow
5:35 PM 28.4 °F 14.7 °F 15.8 °F 59% 30.06 in 10.0 mi WNW 21.9 mph 27.6 mph N/A Snow Light Snow
5:55 PM 28.4 °F 16.6 °F 15.8 °F 59% 30.07 in 10.0 mi WNW 16.1 mph 27.6 mph N/A Snow Light Snow
6:15 PM 28.4 °F 15.4 °F 14.0 °F 55% 30.07 in 10.0 mi NW 19.6 mph 28.8 mph N/A Snow Light Snow
6:35 PM 28.4 °F 14.7 °F 14.0 °F 55% 30.07 in 10.0 mi WNW 21.9 mph - N/A Snow Light Snow
6:55 PM 28.4 °F 15.1 °F 14.0 °F 55% 30.07 in 10.0 mi WNW 20.7 mph - N/A Snow Light Snow
7:15 PM 26.6 °F 13.1 °F 14.0 °F 59% 30.08 in 10.0 mi WNW 19.6 mph 27.6 mph N/A Snow Light Snow
7:55 PM 26.6 °F 13.8 °F 14.0 °F 59% 30.09 in 10.0 mi WNW 17.3 mph 24.2 mph N/A Snow Light Snow
8:15 PM 26.6 °F 14.3 °F 14.0 °F 59% 30.09 in 10.0 mi WNW 16.1 mph 23.0 mph N/A Snow Light Snow
8:35 PM 26.6 °F 14.7 °F 15.8 °F 64% 30.09 in 10.0 mi WNW 15.0 mph - N/A   Overcast
8:55 PM 26.6 °F 13.1 °F 15.8 °F 64% 30.09 in 10.0 mi WNW 19.6 mph 26.5 mph N/A Snow Light Snow
9:15 PM 26.6 °F 14.7 °F 15.8 °F 64% 30.09 in 10.0 mi WNW 15.0 mph 24.2 mph N/A   Overcast
9:55 PM 26.6 °F 14.3 °F 15.8 °F 64% 30.09 in 10.0 mi WNW 16.1 mph - N/A   Overcast
10:15 PM 26.6 °F 13.4 °F 14.0 °F 59% 30.10 in 10.0 mi West 18.4 mph 24.2 mph N/A Snow Light Snow
10:35 PM 26.6 °F 14.7 °F 15.8 °F 64% 30.10 in 10.0 mi WNW 15.0 mph - N/A   Overcast
10:55 PM 26.6 °F 15.7 °F 15.8 °F 64% 30.10 in 10.0 mi WNW 12.7 mph 20.7 mph N/A   Overcast
11:15 PM 26.6 °F 14.3 °F 15.8 °F 64% 30.10 in 10.0 mi WNW 16.1 mph 21.9 mph N/A   Overcast
11:35 PM 26.6 °F 15.7 °F 15.8 °F 64% 30.09 in 10.0 mi WNW 12.7 mph 20.7 mph N/A   Overcast
11:55 PM 26.6 °F 15.2 °F 15.8 °F 64% 30.09 in 10.0 mi NW 13.8 mph - N/A   Overcast